Location: Noordwijk
(52.2400°N, 4.4500°E)
Time: 21:12:27
(UTC+00:00)

FO-29 - Pass Details

Date: 30 November 2022
Orbit: 799 x 1322 km, 98.5° (Epoch: 31 January)

Event Time Altitude Azimuth Distance (km) Brightness Sun altitude
Rises 05:35:38 0° 15° (NNE) 4,070 12.8 -16.2°
Reaches altitude 10° 05:38:26 10° 19° (NNE) 3,031 12.1 -15.8°
Maximum altitude 05:45:15 64° 101° (E) 1,134 10.1 -14.8°
Drops below altitude 10° 05:51:10 10° 183° (S) 2,654 12.0 -13.9°
Sets 05:53:29 0° 186° (S) 3,531 12.6 -13.6°
